User: anonymous   Login
Location: Unspecified
(0.0000°N, 0.0000°E)
Time: 09:31:20
(UTC+00:00)
Language:

GOES 3 - Orbit

View from above orbital plane
View from above orbital plane
View from above satellite
View from above satellite

Ground track
Ground track

The orbit data is extracted from the following two-line orbital elements,

1 10953U 78062A   17326.75532250 -.00000187 +00000-0 +00000-0 0  9996
2 10953 013.2173 329.3993 0005007 297.6959 061.2432 00.99365019097448
Epoch (UTC): 22 November 2017 18:07:39
Eccentricity: 0.0005007
inclination: 13.2173°
perigee height: 36021 km
apogee height: 36063 km
right ascension of ascending node: 329.3993°
argument of perigee: 297.6959°
revolutions per day: 0.99365019
mean anomaly at epoch: 61.2432°
orbit number at epoch: 9744

The dashed part of the orbit path shows where the satellite is in the earth's shadow,  

DLR